Powrót do katalogu

METEOR 1-22 DEB

AktywnyPO
NORAD 36302·DEBRIS·🇷🇺 Russia

Wystrzelony Sep 18, 1975 z Plesetsk Cosmodrome

Loading…

Następne Przeloty (najbliższe 24 godziny)

TLE

ŚwieżeSource: Space-Track

Epoka: Sep 14, 2026, 06:11 UTC

1 36302U 75087C   26257.25779494  .00000163  00000-0  81022-4 0  9997
2 36302  81.2533 347.5992 0110954 222.1279 166.5268 14.09804299903464

Śledź METEOR 1-22 DEB w czasie rzeczywistym z AllMySat

Download on the App Store